This is the latest recevied weather packets stored in our database for station/object KC3ROS. If no packets are shown the sender has not sent any weather packets the latest 10 day(s).
| Time | Temp. | Humidity | Pressure | Rain* | Wind** | Luminosity | Snow |
|---|---|---|---|---|---|---|---|
| 1778106993 | 11.67° C | 67% | 1010.6 hPa | 0 mm | - | 44 W/m² | - |
| 1778106689 | 11.67° C | 65% | 1010.5 hPa | 0 mm | - | 49 W/m² | - |
| 1778106386 | 11.67° C | 66% | 1010.5 hPa | 0 mm | - | 65 W/m² | - |
| 1778106082 | 11.67° C | 69% | 1010.3 hPa | 0 mm | - | 62 W/m² | - |
| 1778105780 | 12.22° C | 68% | 1010.5 hPa | 0 mm | - | 55 W/m² | - |
| 1778105478 | 12.22° C | 68% | 1010.3 hPa | 0 mm | - | 60 W/m² | - |
| 1778105175 | 12.22° C | 66% | 1010.2 hPa | 0 mm | - | 84 W/m² | - |
| 1778104870 | 12.22° C | 66% | 1010.3 hPa | 0 mm | - | 94 W/m² | - |
| 1778104567 | 12.22° C | 65% | 1010 hPa | 0 mm | - | 110 W/m² | - |
| 1778104262 | 12.22° C | 67% | 1010.2 hPa | 0 mm | - | 102 W/m² | - |
| 1778103959 | 12.22° C | 68% | 1010.1 hPa | 0 mm | - | 79 W/m² | - |
| 1778103656 | 12.22° C | 69% | 1009.9 hPa | 0 mm | - | 103 W/m² | - |
| 1778103355 | 12.22° C | 72% | 1009.9 hPa | 0 mm | - | 86 W/m² | - |
| 1778103051 | 12.22° C | 69% | 1009.8 hPa | 0 mm | - | 96 W/m² | - |
| 1778102748 | 12.22° C | 71% | 1009.8 hPa | 0 mm | - | 138 W/m² | - |
| 1778102443 | 11.67° C | 70% | 1009.7 hPa | 0 mm | - | 141 W/m² | - |
| 1778102139 | 11.67° C | 69% | 1009.8 hPa | 0 mm | - | 117 W/m² | - |
| 1778101837 | 12.22° C | 69% | 1010 hPa | 0 mm | - | 143 W/m² | - |
| 1778101533 | 12.22° C | 71% | 1009.5 hPa | 0 mm | - | 185 W/m² | - |
| 1778101230 | 12.22° C | 74% | 1009.8 hPa | 0 mm | - | 198 W/m² | - |
| 1778100927 | 11.67° C | 76% | 1009.7 hPa | 0 mm | - | 195 W/m² | - |
| 1778100622 | 11.67° C | 76% | 1009.4 hPa | 0 mm | - | 145 W/m² | - |
| 1778100320 | 11.67° C | 77% | 1009.4 hPa | 0 mm | - | 133 W/m² | - |
| 1778100017 | 11.67° C | 77% | 1009.4 hPa | 0 mm | - | 99 W/m² | - |
| 1778099715 | 11.67° C | 76% | 1009.6 hPa | 0 mm | - | 79 W/m² | - |
* Rain latest hour (hover to see other rain measurements)
** Current wind speed in m/s (hover to see current wind gust speed)